Flag for Germany Weather past 2 weeks in Jülich, North Rhine-Westphalia, Germany

Now
66 °F

Overcast.


Feels Like: 66 °F
Forecast: 56 / 68 °F
Wind: 3 mph from Southwest

Location: Noervenich

Current Time: Aug 29, 2014 at 8:51:36 PM

Latest Report: Aug 29, 2014 at 7:00 PM


Visibility: 16 mi

Pressure: 30.01 "Hg

Humidity: 67%

Dew point: 55 °F

Location of JülichLocation

Historic Weather in Jülich — Graph

°F

Jülich temperature yesterday

Maximum temperature yesterday: 73 °F (at 1:00 PM)
Minimum temperature yesterday: 56 °F (at 3:00 AM)
Average temperature yesterday: 64 °F

Past Weeks' High & Low Weather Summary

 TemperatureHumidityPressure
High73 °F (Aug 28, 1:00 PM)99% (Aug 27, 6:00 AM)30.13 "Hg (Aug 27, 6:00 AM)
Low43 °F (Aug 20, 7:00 AM)44% (Aug 21, 3:00 PM)29.62 "Hg (Aug 26, 6:00 AM)
Average58 °F79%29.94 "Hg
* Reported Aug 14 7:00 PM — Aug 29 7:00 PM, Jülich, Weather by CustomWeather, © 2014

Note: Actual official high and low records may vary slightly from our data, if they occured in-between our weather recording intervals... More about our weather records

Advertising

Jülich weather history for previous 24 hours

 ConditionsComfort  
Time TempWeatherWind HumidityBarometerVisibility
7:00 PM
Aug 29
66 °FOvercast.3 mph67%30.01 "Hg16 mi
6:00 PM67 °FOvercast.3 mph68%30.01 "Hg16 mi
4:00 PM66 °FOvercast.3 mph75%30.03 "Hg16 mi
3:00 PM64 °FOvercast.3 mph80%30.03 "Hg16 mi
1:00 PM64 °FOvercast.3 mph82%30.03 "Hg12 mi
12:00 PM65 °FOvercast.3 mph80%30.03 "Hg14 mi
10:00 AM63 °FPartly sunny.2 mph81%30.01 "Hg25 mi
9:00 AM60 °FOvercast.1 mph86%30.01 "Hg25 mi
8:00 AM58 °FOvercast.1 mph90%30.01 "Hg12 mi
7:00 AM57 °FPartly sunny.2 mph93%30.00 "Hg16 mi
6:00 AM57 °FPassing clouds.1 mph96%29.99 "Hg9 mi
4:00 AM61 °FOvercast.2 mph86%29.99 "Hg12 mi
3:00 AM62 °FOvercast.N/A91%29.98 "Hg12 mi
1:00 AM63 °FSprinkles. Overcast.2 mph91%29.99 "Hg6 mi
12:00 AM65 °FPassing clouds.3 mph85%29.97 "Hg16 mi
10:00 PM
Aug 28
66 °FOvercast.2 mph81%29.95 "Hg16 mi
9:00 PM66 °FOvercast.1 mph80%29.95 "Hg19 mi
8:00 PM69 °FPartly sunny.2 mph72%29.95 "Hg19 mi
Weather by CustomWeather, © 2014

See weather overviewHow to use our weather pages